[[{"header":{"parameterUnit":"m.s-1","parameterCategory":2,"la1":30.2991,"la2":30.254,"lo1":-89.0895,"lo2":-89.0444,"dy":0.0017,"dx":0.0017,"nx":28,"ny":28,"refTime":"2025-04-26T21:00:00:Z","depth":"0","parameterNumber":2,"parameterNumberName":"U-component_of_CURRENTS"},"data":[0,0,0,0,0,0,0,0,0,0,0,0,0,0,0,0,0,0,0,0,0,0,0,0,0,0,0,0,0,0,0,0,0,0,0,0,0,0,0,0,0,0,0,0,0,0,0,0,0,0,0,0,0,0,0,0,0,0,0.3174,0.3175,0,0.3245,0.3245,0.3246,0.325,0.3249,0.3249,0.3248,0.3273,0.3274,0.3275,0,0,0,0,0,0,0,0,0,0,0,0,0,0.3021,0.3023,0.3174,0.3175,0.3176,0.3245,0.3245,0.3246,0.325,0.3249,0.3249,0.3248,0.3273,0.3274,0.3276,0,0,0,0,0,0,0,0,0,0,0,0,0,0.3086,0.3024,0.3173,0.3188,0.3191,0.3245,0.3245,0.3246,0.325,0.3249,0.3248,0.3248,0.3272,0.3274,0.3276,0.3303,0,0,0.3281,0.3282,0,0,0,0,0,0,0,0,0.3082,0.3091,0.3185,0.3187,0.319,0.324,0.3201,0.3264,0.325,0.3224,0.3248,0.3247,0.326,0.3263,0.3275,0.3304,0.3305,0.3281,0.3282,0.3283,0.3284,0,0,0,0,0,0,0,0.3078,0.3088,0.3199,0.3186,0.319,0.3185,0.3193,0.3213,0.3243,0.3227,0.3228,0.3241,0.3261,0.3273,0.3275,0.3306,0.3281,0.3283,0.3284,0.3285,0.3389,0.3391,0,0,0,0,0,0,0.3078,0.3085,0.3197,0.3201,0.3136,0.3188,0.3197,0.3222,0.3244,0.3248,0.3241,0.3241,0.327,0.3273,0.3276,0.3336,0.3283,0.3285,0.3286,0.3388,0.339,0.3392,0,0,0,0,0,0,0.3074,0.3088,0.3194,0.3146,0.3159,0.3192,0.322,0.3224,0.324,0.3256,0.3258,0.3253,0.327,0.3274,0.3316,0.3336,0.3286,0.3287,0.3386,0.3388,0.3391,0.3439,0,0,0,0,0,0,0.307,0.3086,0.3103,0.3146,0.3162,0.3232,0.3221,0.3226,0.325,0.325,0.3267,0.3268,0.327,0.3313,0.3318,0.3337,0.3289,0.3383,0.3387,0.339,0.3435,0.3443,0.3449,0,0,0,0,0,0.3064,0.3092,0.3104,0.3117,0.3185,0.3233,0.3241,0.3258,0.3252,0.3267,0.3288,0.3268,0.3336,0.3317,0.3321,0.3342,0.3382,0.3386,0.339,0.3432,0.3441,0.3449,0,0,0,0,0,0,0.3033,0.3096,0.311,0.3155,0.3194,0.3235,0.3255,0.3264,0.3293,0.3294,0.3297,0.3301,0.3345,0.3342,0.3321,0.3383,0.3353,0.3358,0.3384,0.3392,0.3399,0.3414,0.329,0,0,0,0,0,0.3037,0.3073,0.3128,0.3163,0.3187,0.3221,0.3242,0.3258,0.3291,0.3302,0.3311,0.3331,0.3366,0.3377,0.3402,0.3438,0.3456,0.3453,0.346,0.3466,0.3482,0.354,0.3554,0.3404,0.3404,0.3404,0,0,0.3031,0.3073,0.3091,0.3158,0.319,0.3231,0.3231,0.3273,0.3307,0.3301,0.3341,0.3358,0.3384,0.3429,0.3446,0.3427,0.3518,0.3471,0.3475,0.3489,0.3546,0.356,0.3573,0.3407,0.3406,0.3406,0,0,0.3042,0.3082,0.3117,0.3156,0.3215,0.3242,0.3255,0.3302,0.3324,0.3371,0.3381,0.342,0.345,0.3483,0.3503,0.3566,0.3558,0.356,0.3604,0.366,0.3673,0.3684,0.3723,0.3738,0.3559,0.3559,0.3559,0,0.3034,0.3091,0.3131,0.3178,0.3211,0.3247,0.3288,0.3326,0.3375,0.3408,0.3388,0.3472,0.3483,0.3562,0.3583,0.3582,0.3606,0.3566,0.3669,0.3681,0.3692,0.3729,0.3745,0.3561,0.3561,0.3561,0.3561,0,0.3072,0.312,0.3146,0.3217,0.3253,0.3298,0.3356,0.3393,0.3414,0.3453,0.3528,0.3555,0.3604,0.361,0.3617,0.3703,0.3692,0.3675,0.3645,0.371,0.3745,0.3761,0.3565,0.3564,0.3564,0.3563,0,0,0.3045,0.3153,0.3159,0.3196,0.328,0.3309,0.3381,0.3459,0.3511,0.3554,0.3622,0.3684,0.3698,0.3723,0.3733,0.3777,0.3868,0.376,0.3761,0.3795,0.3988,0.3941,0.3952,0.3868,0.3871,0.3873,0.398,0,0.3063,0.3139,0.3195,0.3259,0.3302,0.3366,0.3427,0.35,0.3561,0.3633,0.3691,0.3756,0.3743,0.3767,0.3817,0.3863,0.3912,0.3841,0.3924,0.3927,0.3874,0.397,0.389,0.3975,0.3995,0.3997,0.3999,0,0.3073,0.3129,0.319,0.3287,0.3312,0.3351,0.3449,0.3514,0.364,0.3692,0.3776,0.3825,0.3922,0.3881,0.4007,0.3963,0.3988,0.4009,0.4013,0.3965,0.3909,0.3915,0.4002,0.3913,0.4022,0.4021,0.4019,0,0.3009,0.3118,0.316,0.3193,0.3309,0.3346,0.3403,0.3522,0.3593,0.373,0.3785,0.3911,0.3966,0.4036,0.4096,0.4061,0.4217,0.4168,0.4151,0.4147,0.4095,0.4081,0.4103,0.4258,0.4258,0.4257,0.4257,0,0.2998,0.3033,0.313,0.3155,0.3212,0.3299,0.3376,0.3463,0.3594,0.3681,0.38,0.3889,0.4008,0.411,0.4144,0.4211,0.4264,0.4191,0.4187,0.4107,0.4094,0.4024,0.3981,0.4261,0.4261,0.426,0.4259,0,0.2921,0.2988,0.3042,0.3151,0.3182,0.3213,0.3343,0.3403,0.3534,0.3648,0.3695,0.3899,0.4037,0.4141,0.4271,0.4265,0.423,0.4334,0.4227,0.4208,0.407,0.4033,0.3913,0.3791,0.4332,0.4332,0.4332,0,0.2893,0.2911,0.3007,0.3031,0.3078,0.3145,0.3195,0.3347,0.3421,0.3648,0.3696,0.3891,0.4025,0.4213,0.4272,0.4352,0.422,0.4286,0.4198,0.4082,0.4039,0.3859,0.3751,0.4151,0.4149,0.4148,0.4147,0,0.2838,0.2862,0.2903,0.2953,0.2995,0.3057,0.3144,0.3196,0.3375,0.3487,0.3665,0.3802,0.4024,0.4114,0.4231,0.4264,0.4101,0.4255,0.4179,0.3948,0.3714,0.3586,0.4048,0.4134,0.4136,0.4136,0.4137,0.4138,0.278,0.2785,0.2829,0.2865,0.2913,0.2954,0.2967,0.308,0.3186,0.3336,0.3547,0.3692,0.3929,0.4105,0.4105,0.4068,0.3998,0.3983,0.3966,0.3805,0.3627,0.4051,0.4096,0.4097,0.4097,0.4098,0.4099,0,0.2706,0.2719,0.2745,0.278,0.2785,0.2851,0.292,0.2923,0.2992,0.3181,0.3335,0.356,0.3706,0.3843,0.394,0.3823,0.3633,0.3728,0.3482,0.34,0.3847,0.378,0.3703,0.3703,0.3703,0.3704,0.3704,0.3704,0.2669,0.2653,0.2663,0.2641,0.266,0.2633,0.2642,0.2676,0.2778,0.2896,0.3013,0.3186,0.3535,0.3794,0.3759,0.3661,0.3362,0.3244,0.3168,0.3538,0.356,0.358,0.3507,0.3374,0.3374,0.2599,0.2594,0.259]},{"header":{"parameterUnit":"m.s-1","parameterCategory":2,"la1":30.2991,"la2":30.254,"lo1":-89.0895,"lo2":-89.0444,"dy":0.0017,"dx":0.0017,"nx":28,"ny":28,"refTime":"2025-04-26T21:00:00:Z","depth":"0","parameterNumber":3,"parameterNumberName":"V-component_of_CURRENTS"},"data":[0,0,0,0,0,0,0,0,0,0,0,0,0,0,0,0,0,0,0,0,0,0,0,0,0,0,0,0,0,0,0,0,0,0,0,0,0,0,0,0,0,0,0,0,0,0,0,0,0,0,0,0,0,0,0,0,0,0,0.0166,0.0165,0,0.0044,0.0043,0.0041,-0.0058,-0.0059,-0.006,-0.0061,-0.0184,-0.0187,-0.0189,0,0,0,0,0,0,0,0,0,0,0,0,0,0.0233,0.0233,0.0166,0.0165,0.0164,0.0044,0.0043,0.0041,-0.0058,-0.0059,-0.006,-0.0061,-0.0183,-0.0186,-0.0189,0,0,0,0,0,0,0,0,0,0,0,0,0,0.0165,0.0233,0.0167,0.0101,0.0095,0.0045,0.0043,0.004,-0.0058,-0.0059,-0.006,-0.0062,-0.0182,-0.0186,-0.019,-0.0188,0,0,-0.0201,-0.0203,0,0,0,0,0,0,0,0,0.017,0.0163,0.0112,0.0106,0.0098,0.0009,0.0021,-0.0035,-0.0058,-0.0002,-0.0061,-0.0062,-0.0118,-0.0127,-0.015,-0.0193,-0.0199,-0.0202,-0.0204,-0.0205,-0.0207,0,0,0,0,0,0,0,0.0174,0.0167,0.0116,0.0111,0.0102,0.0051,0.004,0.0009,-0.0053,-0.0007,-0.0014,-0.0024,-0.0122,-0.0146,-0.0153,-0.0201,-0.0201,-0.0205,-0.0207,-0.0209,-0.0254,-0.0253,0,0,0,0,0,0,0.0199,0.0172,0.012,0.0112,0.0134,0.0051,0.0039,0.0037,-0.0053,-0.0067,-0.0023,-0.0028,-0.0139,-0.0149,-0.0158,-0.0143,-0.0205,-0.0209,-0.0211,-0.0255,-0.0254,-0.0253,0,0,0,0,0,0,0.0201,0.0196,0.0125,0.014,0.0128,0.0052,0.005,0.0035,0.0014,-0.0064,-0.0079,-0.0029,-0.014,-0.0153,-0.0183,-0.0149,-0.0211,-0.0214,-0.0256,-0.0255,-0.0253,-0.0124,0,0,0,0,0,0,0.0204,0.0198,0.0207,0.0143,0.0128,0.0111,0.0051,0.0034,0.001,0.0002,-0.0074,-0.0087,-0.0142,-0.0177,-0.0187,-0.0155,-0.0217,-0.0258,-0.0256,-0.0254,-0.0129,-0.0118,-0.0108,0,0,0,0,0,0.0207,0.0234,0.0208,0.0201,0.0142,0.0113,0.0101,0.004,0.0012,0.0014,-0.0044,-0.0085,-0.0172,-0.0179,-0.0191,-0.016,-0.0259,-0.0256,-0.0254,-0.0134,-0.012,-0.0108,0,0,0,0,0,0,0.0272,0.0225,0.0195,0.0207,0.0167,0.0097,0.0097,0.0055,0.001,0.0005,-0.0075,-0.0091,-0.0106,-0.015,-0.0156,-0.0168,-0.022,-0.022,-0.0125,-0.0112,-0.0102,-0.0076,-0.022,0,0,0,0,0,0.0292,0.0295,0.0239,0.0248,0.0236,0.0169,0.015,0.0112,0.0063,0.0041,-0.0015,-0.0068,-0.0105,-0.0122,-0.0166,-0.0167,-0.0215,-0.0155,-0.0144,-0.0135,-0.0122,-0.017,-0.0162,-0.0245,-0.0245,-0.0245,0,0,0.0319,0.0294,0.0294,0.0261,0.0226,0.0227,0.0155,0.0142,0.0142,0.0039,0.0025,-0.0034,-0.0099,-0.0109,-0.0118,-0.014,-0.0136,-0.0132,-0.0123,-0.0115,-0.0167,-0.0159,-0.0152,-0.0244,-0.0244,-0.0244,0,0,0.0382,0.0356,0.038,0.0357,0.032,0.0281,0.0285,0.0225,0.0199,0.0174,0.0105,0.0068,0.0005,-0.0031,-0.0058,-0.0012,-0.0082,-0.0023,0.0058,0.0012,0.0018,0.0023,-0.0021,-0.0021,-0.0012,-0.0012,-0.0012,0,0.0416,0.0436,0.0383,0.0401,0.0391,0.0315,0.034,0.031,0.0245,0.0236,0.0188,0.0099,0.0044,0.0038,0.0049,0.0015,-0.0027,0.0018,0.0027,0.0031,0.0034,-0.0013,-0.0014,-0.0006,-0.0006,-0.0007,-0.0008,0,0.0493,0.0507,0.0524,0.0516,0.0501,0.0513,0.0463,0.0451,0.0403,0.0362,0.0333,0.0244,0.0192,0.0173,0.0122,0.0129,0.0087,0.0043,-0.0001,0.005,-0.0003,-0.0006,0.0004,0.0002,-0.0,-0.0002,0,0,0.0573,0.0578,0.0583,0.0597,0.0564,0.0562,0.0573,0.0557,0.0571,0.0497,0.0501,0.0426,0.0368,0.0334,0.0266,0.0227,0.0211,0.0156,0.0151,0.0122,0.0109,0.009,0.0083,0.0166,0.0166,0.0166,0.0066,0,0.0648,0.071,0.0685,0.0736,0.076,0.0703,0.0716,0.0692,0.0653,0.064,0.0553,0.0526,0.0435,0.0413,0.0361,0.025,0.0205,0.0242,0.0056,0.005,0.0034,0.008,0.009,0.0004,0.0062,0.0061,0.0061,0,0.0725,0.0759,0.0823,0.0842,0.0847,0.0864,0.0868,0.0873,0.0839,0.0808,0.0762,0.0682,0.0626,0.053,0.0373,0.0399,0.0271,0.0173,0.0166,0.0101,0.0024,-0.0041,-0.0007,-0.0202,0.0054,0.0054,0.0055,0,0.0794,0.0848,0.0903,0.091,0.0923,0.0944,0.0949,0.0928,0.0951,0.0923,0.0924,0.0826,0.0783,0.0618,0.0423,0.0394,0.024,0.0169,0.0027,0.0023,-0.0027,-0.0034,-0.0195,0.0051,0.0051,0.0051,0.0052,0,0.0868,0.0915,0.0946,0.0978,0.1052,0.1026,0.109,0.1082,0.1088,0.1129,0.1021,0.103,0.0801,0.0681,0.0478,0.0261,0.0279,0.0055,0.0003,0.0019,0.0017,-0.0205,-0.0318,0.0048,0.0048,0.0049,0.005,0,0.0924,0.0941,0.1015,0.1062,0.1083,0.1135,0.1189,0.1236,0.1228,0.1278,0.1277,0.1192,0.1038,0.0798,0.0543,0.0349,0.0014,0.0043,0.0084,0.004,-0.0285,-0.039,-0.0613,-0.0703,-0.0135,-0.0136,-0.0137,0,0.0957,0.1002,0.1084,0.1133,0.1159,0.1232,0.1282,0.1305,0.1364,0.1383,0.1422,0.1307,0.1249,0.0884,0.0524,0.0179,-0.0021,-0.0043,-0.0102,-0.0285,-0.0441,-0.052,-0.0584,-0.0124,-0.0124,-0.0125,-0.0125,0,0.103,0.1053,0.1113,0.1218,0.1287,0.1374,0.1455,0.153,0.156,0.1612,0.167,0.1635,0.1285,0.0966,0.0499,0.0247,-0.0175,-0.0066,-0.0272,-0.0448,-0.0529,-0.0644,-0.0079,-0.013,-0.0129,-0.0129,-0.0129,-0.0128,0.1075,0.1135,0.121,0.1305,0.1392,0.1507,0.1591,0.1693,0.1812,0.191,0.1869,0.1853,0.1373,0.0745,0.0392,-0.0237,-0.0256,-0.0437,-0.055,-0.0613,-0.0694,-0.0128,-0.0225,-0.0225,-0.0225,-0.0225,-0.0225,0,0.1127,0.1195,0.1291,0.1406,0.1506,0.1541,0.1696,0.1795,0.1955,0.2053,0.2108,0.1862,0.1281,0.0678,-0.0169,-0.0623,-0.0787,-0.0871,-0.099,-0.1036,-0.0549,-0.0541,-0.0689,-0.0689,-0.0689,-0.0689,-0.0689,-0.0688,0.1151,0.1246,0.1298,0.1472,0.1559,0.1703,0.1797,0.1963,0.2077,0.2209,0.2207,0.2168,0.1697,0.0198,-0.0806,-0.1044,-0.1371,-0.1452,-0.1606,-0.1288,-0.1257,-0.1226,-0.1245,-0.1539,-0.154,-0.2029,-0.2034,-0.2038]}],[{"header":{"parameterUnit":"m.s-1","parameterCategory":2,"la1":30.2991,"la2":30.254,"lo1":-89.0895,"lo2":-89.0444,"dy":0.0017,"dx":0.0017,"nx":28,"ny":28,"refTime":"2025-04-26T21:00:00:Z","depth":"2","parameterNumber":2,"parameterNumberName":"U-component_of_CURRENTS"},"data":[0,0,0,0,0,0,0,0,0,0,0,0,0,0,0,0,0,0,0,0,0,0,0,0,0,0,0,0,0,0,0,0,0,0,0,0,0,0,0,0,0,0,0,0,0,0,0,0,0,0,0,0,0,0,0,0,0,0,0.2612,0.2613,0,0.2681,0.2682,0.2683,0.2703,0.2702,0.2702,0.2702,0.2713,0.2714,0.2715,0,0,0,0,0,0,0,0,0,0,0,0,0,0.2524,0.2525,0.2612,0.2613,0.2614,0.2681,0.2682,0.2683,0.2703,0.2702,0.2702,0.2702,0.2713,0.2714,0.2715,0,0,0,0,0,0,0,0,0,0,0,0,0,0.2574,0.2525,0.2612,0.2632,0.2635,0.2681,0.2682,0.2683,0.2703,0.2702,0.2702,0.2701,0.2713,0.2714,0.2715,0.273,0,0,0.2717,0.2718,0,0,0,0,0,0,0,0,0.2571,0.2577,0.2628,0.2631,0.2634,0.2683,0.2655,0.2696,0.2703,0.2676,0.2702,0.2701,0.2699,0.2701,0.2715,0.273,0.2731,0.2717,0.2718,0.2718,0.2719,0,0,0,0,0,0,0,0.2567,0.2574,0.2639,0.2629,0.2633,0.2647,0.2654,0.2664,0.2688,0.2678,0.268,0.2689,0.27,0.2714,0.2715,0.2731,0.2717,0.2718,0.2719,0.2719,0.2815,0.2817,0,0,0,0,0,0,0.256,0.2571,0.2636,0.2641,0.2601,0.2649,0.2656,0.2667,0.2689,0.2692,0.269,0.269,0.2713,0.2714,0.2715,0.2771,0.2718,0.2719,0.272,0.2813,0.2816,0.2818,0,0,0,0,0,0,0.2557,0.2565,0.2634,0.2608,0.2618,0.2651,0.2664,0.2669,0.2684,0.2698,0.27,0.2699,0.2712,0.2714,0.2751,0.277,0.272,0.2721,0.2811,0.2814,0.2817,0.2858,0,0,0,0,0,0,0.2555,0.2564,0.2571,0.2607,0.2619,0.2664,0.2664,0.2671,0.269,0.2691,0.2707,0.2707,0.2712,0.275,0.2752,0.277,0.2721,0.2809,0.2812,0.2816,0.2855,0.2863,0.2869,0,0,0,0,0,0.2551,0.2564,0.2571,0.258,0.2628,0.2665,0.2672,0.2694,0.2691,0.2703,0.273,0.2707,0.2775,0.2753,0.2755,0.2773,0.2807,0.2811,0.2816,0.2851,0.2861,0.2869,0,0,0,0,0,0,0.2521,0.2568,0.2577,0.26,0.2631,0.2668,0.269,0.2694,0.2725,0.2734,0.2734,0.2738,0.2776,0.2776,0.2751,0.2816,0.2786,0.2792,0.2813,0.2822,0.2829,0.2842,0.2722,0,0,0,0,0,0.252,0.2548,0.2585,0.2604,0.2626,0.2656,0.2674,0.2691,0.2722,0.2734,0.2745,0.2769,0.2797,0.281,0.2831,0.2865,0.2875,0.288,0.2888,0.2894,0.2909,0.2957,0.297,0.2833,0.2833,0.2833,0,0,0.2516,0.2543,0.256,0.2601,0.2634,0.2661,0.2667,0.2705,0.2738,0.2731,0.2779,0.2791,0.2813,0.2859,0.2875,0.286,0.2937,0.29,0.2904,0.2916,0.2963,0.2977,0.2988,0.2836,0.2836,0.2835,0,0,0.2522,0.2548,0.2577,0.2605,0.2654,0.2674,0.2682,0.2726,0.2762,0.2805,0.2818,0.285,0.2878,0.2911,0.2927,0.2989,0.2973,0.2988,0.3035,0.3082,0.3094,0.3104,0.3121,0.3133,0.2993,0.2993,0.2993,0,0.2516,0.2548,0.2588,0.262,0.265,0.2675,0.271,0.275,0.2798,0.2837,0.2825,0.2897,0.2906,0.2976,0.3006,0.3003,0.3021,0.2994,0.3091,0.3101,0.3111,0.3127,0.3139,0.2995,0.2995,0.2995,0.2994,0,0.2538,0.2568,0.259,0.2638,0.2676,0.271,0.2771,0.2808,0.2837,0.2872,0.2948,0.2977,0.3018,0.3026,0.3036,0.3115,0.3102,0.309,0.3063,0.3127,0.3139,0.3151,0.2999,0.2998,0.2997,0.2997,0,0,0.2513,0.2592,0.2597,0.2624,0.2693,0.272,0.2795,0.2866,0.2912,0.296,0.3026,0.3086,0.3098,0.3121,0.3137,0.3183,0.3258,0.3174,0.3175,0.3182,0.3351,0.3323,0.3333,0.3267,0.327,0.3272,0.3327,0,0.2518,0.2566,0.2617,0.2663,0.2697,0.2761,0.2824,0.2895,0.2957,0.3023,0.3086,0.3148,0.3139,0.3167,0.3214,0.3255,0.3295,0.3243,0.3297,0.3299,0.3259,0.3348,0.3115,0.3144,0.3339,0.334,0.3342,0,0.2522,0.2552,0.2606,0.2685,0.2711,0.2745,0.2848,0.2913,0.3026,0.3082,0.3156,0.3201,0.3293,0.3267,0.3368,0.3339,0.3356,0.3374,0.3376,0.3347,0.3294,0.3116,0.3158,0.3361,0.336,0.3358,0.3357,0,0.2473,0.2546,0.2585,0.261,0.2701,0.2754,0.281,0.2926,0.3005,0.313,0.3183,0.3283,0.3341,0.3394,0.3444,0.3418,0.3539,0.3497,0.3482,0.3478,0.329,0.3266,0.3567,0.3567,0.3567,0.3567,0.3567,0,0.2452,0.2477,0.2562,0.2576,0.2634,0.2726,0.2809,0.2888,0.3017,0.3097,0.321,0.3284,0.3381,0.346,0.3481,0.3531,0.3569,0.3517,0.3509,0.3297,0.3275,0.3469,0.3457,0.3569,0.3568,0.3568,0.3568,0,0.2394,0.2444,0.2488,0.2581,0.2613,0.2659,0.2796,0.285,0.2989,0.3098,0.3148,0.3311,0.3419,0.3499,0.359,0.3576,0.3624,0.3623,0.3362,0.3325,0.3513,0.3503,0.3612,0.3611,0.3611,0.3611,0.3611,0,0.2371,0.2387,0.2472,0.2493,0.2537,0.2615,0.2667,0.2817,0.289,0.3099,0.3143,0.3309,0.3394,0.3535,0.3564,0.3613,0.3642,0.3403,0.3319,0.3546,0.3527,0.3516,0.3506,0.307,0.3065,0.3062,0.3059,0,0.2317,0.2351,0.2377,0.2424,0.2473,0.2526,0.2623,0.267,0.2843,0.2949,0.3084,0.3181,0.3352,0.3323,0.3421,0.3409,0.3383,0.3332,0.3651,0.3109,0.3044,0.3022,0.3028,0.3026,0.3029,0.3031,0.3033,0.3035,0.2277,0.228,0.2313,0.2345,0.2393,0.242,0.2425,0.2529,0.2619,0.2747,0.2917,0.2991,0.3097,0.3139,0.308,0.3052,0.327,0.3127,0.3134,0.3146,0.3088,0.3028,0.2994,0.2997,0.3,0.3002,0.3004,0,0.2199,0.2211,0.2234,0.2259,0.2247,0.2318,0.2373,0.2355,0.2393,0.2563,0.2669,0.2559,0.2606,0.2694,0.2623,0.2666,0.2591,0.2547,0.2419,0.2458,0.2492,0.2394,0.2118,0.2115,0.2111,0.2108,0,0,0.2162,0.2133,0.2135,0.209,0.2112,0.207,0.2065,0.2071,0.2154,0.2174,0.2231,0.2489,0.2642,0.2328,0.2331,0.2202,0.229,0.2124,0.2853,0.2743,0.277,0.2871,0.2774,0,0,0,0,0]},{"header":{"parameterUnit":"m.s-1","parameterCategory":2,"la1":30.2991,"la2":30.254,"lo1":-89.0895,"lo2":-89.0444,"dy":0.0017,"dx":0.0017,"nx":28,"ny":28,"refTime":"2025-04-26T21:00:00:Z","depth":"2","parameterNumber":3,"parameterNumberName":"V-component_of_CURRENTS"},"data":[0,0,0,0,0,0,0,0,0,0,0,0,0,0,0,0,0,0,0,0,0,0,0,0,0,0,0,0,0,0,0,0,0,0,0,0,0,0,0,0,0,0,0,0,0,0,0,0,0,0,0,0,0,0,0,0,0,0,-0.0021,-0.0022,0,-0.0116,-0.0117,-0.0118,-0.0187,-0.0187,-0.0188,-0.0188,-0.0291,-0.0293,-0.0296,0,0,0,0,0,0,0,0,0,0,0,0,0,0.0041,0.0041,-0.0021,-0.0022,-0.0023,-0.0115,-0.0117,-0.0118,-0.0187,-0.0187,-0.0188,-0.0189,-0.029,-0.0293,-0.0296,0,0,0,0,0,0,0,0,0,0,0,0,0,-0.0014,0.0041,-0.002,-0.0067,-0.0072,-0.0115,-0.0117,-0.0119,-0.0187,-0.0187,-0.0188,-0.0189,-0.0289,-0.0293,-0.0296,-0.0304,0,0,-0.0307,-0.0308,0,0,0,0,0,0,0,0,-0.0011,-0.0016,-0.0059,-0.0064,-0.007,-0.0139,-0.0133,-0.018,-0.0187,-0.0145,-0.0188,-0.0189,-0.024,-0.0247,-0.0265,-0.0308,-0.0313,-0.0307,-0.0309,-0.0311,-0.0312,0,0,0,0,0,0,0,-0.0007,-0.0013,-0.006,-0.006,-0.0067,-0.0104,-0.0112,-0.0142,-0.0188,-0.0148,-0.0153,-0.0162,-0.0243,-0.0262,-0.0268,-0.0314,-0.0307,-0.031,-0.0312,-0.0314,-0.0381,-0.0381,0,0,0,0,0,0,0.0012,-0.0009,-0.0056,-0.0062,-0.004,-0.0104,-0.0113,-0.0117,-0.0188,-0.0199,-0.0161,-0.0164,-0.0255,-0.0264,-0.0272,-0.0278,-0.0311,-0.0314,-0.0316,-0.0382,-0.0381,-0.0381,0,0,0,0,0,0,0.0013,0.0009,-0.0053,-0.0037,-0.0047,-0.0104,-0.0108,-0.0119,-0.0136,-0.0197,-0.0209,-0.0166,-0.0256,-0.0267,-0.0299,-0.0282,-0.0315,-0.0319,-0.0382,-0.0382,-0.0381,-0.0294,0,0,0,0,0,0,0.0016,0.001,0.0017,-0.0035,-0.0047,-0.0068,-0.0107,-0.012,-0.0139,-0.0145,-0.0206,-0.0216,-0.0258,-0.0294,-0.0303,-0.0288,-0.0321,-0.0382,-0.0382,-0.0381,-0.0297,-0.029,-0.0285,0,0,0,0,0,0.0018,0.0034,0.0019,0.0013,-0.0036,-0.0068,-0.0077,-0.0121,-0.0138,-0.014,-0.0186,-0.0214,-0.0297,-0.0296,-0.0307,-0.0293,-0.0383,-0.0382,-0.0381,-0.03,-0.0292,-0.0285,0,0,0,0,0,0,0.0069,0.0026,0.0009,0.0012,-0.0021,-0.0079,-0.0081,-0.0111,-0.0149,-0.0153,-0.0212,-0.0226,-0.0249,-0.0283,-0.0281,-0.0312,-0.0344,-0.0345,-0.0278,-0.0271,-0.0265,-0.0239,-0.0324,0,0,0,0,0,0.0085,0.0081,0.0035,0.0039,0.0028,-0.0024,-0.004,-0.0071,-0.0112,-0.013,-0.0173,-0.0218,-0.0254,-0.0272,-0.0311,-0.0324,-0.0359,-0.0323,-0.0317,-0.0311,-0.0298,-0.0341,-0.0337,-0.0379,-0.0379,-0.0379,0,0,0.0106,0.0082,0.0081,0.0049,0.0021,0.0009,-0.0036,-0.0053,-0.0061,-0.0134,-0.0152,-0.0199,-0.0255,-0.0275,-0.0287,-0.0301,-0.0318,-0.031,-0.0305,-0.0295,-0.034,-0.0335,-0.0332,-0.0379,-0.0379,-0.0379,0,0,0.0142,0.0127,0.0133,0.0112,0.0077,0.0043,0.0043,-0.0008,-0.0026,-0.0053,-0.0105,-0.0138,-0.0196,-0.023,-0.0255,-0.0237,-0.0286,-0.025,-0.0194,-0.0236,-0.0232,-0.023,-0.0267,-0.0268,-0.0244,-0.0244,-0.0244,0,0.0168,0.017,0.0131,0.0131,0.0124,0.0064,0.0073,0.0043,-0.0012,-0.0015,-0.0047,-0.0126,-0.0173,-0.0193,-0.019,-0.022,-0.0253,-0.0215,-0.0226,-0.0224,-0.0223,-0.0262,-0.0265,-0.024,-0.024,-0.0241,-0.0241,0,0.0202,0.0206,0.0211,0.0189,0.0178,0.0176,0.0135,0.0121,0.009,0.0058,0.0032,-0.0039,-0.0082,-0.0104,-0.0143,-0.0152,-0.0182,-0.0214,-0.0239,-0.0213,-0.0257,-0.0261,-0.0233,-0.0235,-0.0236,-0.0237,0,0,0.0254,0.0238,0.0241,0.025,0.0213,0.021,0.0205,0.0189,0.0198,0.0137,0.0143,0.0072,0.0035,0.0005,-0.005,-0.0086,-0.011,-0.0137,-0.0142,-0.0163,-0.02,-0.0211,-0.0217,-0.0146,-0.0146,-0.0146,-0.0232,0,0.0293,0.0312,0.0294,0.0321,0.0329,0.0292,0.0298,0.0277,0.0248,0.0237,0.0169,0.015,0.0076,0.0064,0.0014,-0.0077,-0.0118,-0.0084,-0.0231,-0.0235,-0.0239,-0.0221,-0.0188,-0.0261,-0.0237,-0.0238,-0.0238,0,0.0334,0.0341,0.0376,0.0395,0.0399,0.0408,0.042,0.0419,0.0387,0.0367,0.0326,0.0269,0.0213,0.0145,0.0005,0.0029,-0.0072,-0.0151,-0.0157,-0.0197,-0.0253,-0.0285,-0.027,-0.0246,-0.0246,-0.0245,-0.0244,0,0.0387,0.0406,0.0442,0.0444,0.0447,0.0473,0.0478,0.0463,0.0489,0.0456,0.0464,0.0371,0.0336,0.02,0.0037,0.0021,-0.0122,-0.0169,-0.0277,-0.0279,-0.0294,-0.0297,-0.0266,-0.0266,-0.0266,-0.0266,-0.0266,0,0.0434,0.0464,0.0474,0.0493,0.0554,0.0539,0.0602,0.0591,0.0599,0.0639,0.0542,0.0546,0.0348,0.0241,0.0076,-0.0105,-0.0097,-0.0257,-0.0298,-0.0263,-0.0262,-0.0286,-0.0287,-0.0269,-0.0268,-0.0268,-0.0267,0,0.0483,0.0484,0.0533,0.0561,0.0581,0.0627,0.0691,0.0733,0.0726,0.0772,0.0773,0.0681,0.0541,0.0338,0.0118,-0.004,-0.0219,-0.0288,-0.0229,-0.0261,-0.0361,-0.0357,-0.0415,-0.0416,-0.0417,-0.0418,-0.0419,0,0.0507,0.0536,0.0594,0.0636,0.0655,0.0721,0.0771,0.0794,0.0848,0.0857,0.089,0.0783,0.0716,0.0394,0.0105,-0.0174,-0.0218,-0.0332,-0.0359,-0.034,-0.0375,-0.0369,-0.0364,-0.0351,-0.0351,-0.0351,-0.0351,0,0.0558,0.0582,0.0622,0.0707,0.0774,0.0852,0.0928,0.0992,0.1022,0.1062,0.1085,0.104,0.0742,0.047,0.0093,-0.0098,-0.0285,-0.0341,-0.0338,-0.0311,-0.0285,-0.0316,-0.0312,-0.0351,-0.0351,-0.0351,-0.0351,-0.0351,0.0604,0.0646,0.0704,0.0788,0.0867,0.0968,0.1047,0.1128,0.1225,0.1296,0.1239,0.119,0.0866,0.0405,0.0062,-0.0288,-0.0282,-0.0405,-0.0403,-0.0402,-0.0371,-0.0347,-0.042,-0.042,-0.0421,-0.0421,-0.0421,0,0.0647,0.0697,0.0779,0.0881,0.0972,0.1007,0.1142,0.1221,0.1341,0.141,0.1433,0.1152,0.0842,0.0478,-0.004,-0.0361,-0.0386,-0.0456,-0.0419,-0.0416,-0.0414,-0.0384,-0.0436,-0.0437,-0.0438,-0.0439,0,0,0.0669,0.0748,0.0788,0.0942,0.1024,0.1159,0.1242,0.136,0.1446,0.1513,0.151,0.1442,0.0985,0.0612,0.0167,-0.0131,-0.0197,-0.0188,-0.0141,-0.0042,-0.0036,-0.0351,-0.0296,0,0,0,0,0]}],[{"header":{"parameterUnit":"m.s-1","parameterCategory":2,"la1":30.2991,"la2":30.254,"lo1":-89.0895,"lo2":-89.0444,"dy":0.0017,"dx":0.0017,"nx":28,"ny":28,"refTime":"2025-04-26T21:00:00:Z","depth":"4","parameterNumber":2,"parameterNumberName":"U-component_of_CURRENTS"},"data":[0,0,0,0,0,0,0,0,0,0,0,0,0,0,0,0,0,0,0,0,0,0,0,0,0,0,0,0,0,0,0,0,0,0,0,0,0,0,0,0,0,0,0,0,0,0,0,0,0,0,0,0,0,0,0,0,0,0,0.1503,0.1504,0,0.1602,0.1603,0.1604,0.1664,0.1665,0.1665,0.1666,0.1742,0.1743,0.1745,0,0,0,0,0,0,0,0,0,0,0,0,0,0.1343,0.1346,0.1503,0.1505,0.1506,0.1602,0.1603,0.1605,0.1664,0.1665,0.1666,0.1666,0.1741,0.1743,0.1745,0,0,0,0,0,0,0,0,0,0,0,0,0,0.1422,0.1347,0.1503,0.1549,0.1555,0.1602,0.1604,0.1605,0.1664,0.1665,0.1666,0.1666,0.1741,0.1743,0.1745,0.1744,0,0,0.1752,0.1753,0,0,0,0,0,0,0,0,0.1418,0.1428,0.1541,0.1546,0.1552,0.1624,0.1575,0.1651,0.1664,0.162,0.1666,0.1667,0.1701,0.1707,0.1721,0.1748,0.1751,0.1752,0.1754,0.1755,0.1755,0,0,0,0,0,0,0,0.1412,0.1424,0.154,0.1542,0.1549,0.1558,0.157,0.159,0.1653,0.1624,0.1629,0.1644,0.1704,0.1718,0.1723,0.1752,0.1752,0.1754,0.1756,0.1757,0.1887,0.1889,0,0,0,0,0,0,0.1406,0.1419,0.1537,0.1543,0.1488,0.156,0.1574,0.1598,0.1653,0.1663,0.1643,0.1646,0.1714,0.172,0.1726,0.1816,0.1755,0.1757,0.1758,0.1885,0.1887,0.1889,0,0,0,0,0,0,0.1402,0.1416,0.1533,0.1484,0.15,0.1563,0.1589,0.16,0.1648,0.1668,0.1678,0.1684,0.1715,0.1722,0.1777,0.1816,0.1758,0.176,0.1882,0.1885,0.1888,0.194,0,0,0,0,0,0,0.1397,0.1414,0.1447,0.1484,0.1503,0.1584,0.1589,0.1601,0.1655,0.1661,0.1706,0.1712,0.1716,0.1774,0.178,0.1818,0.1762,0.188,0.1884,0.1887,0.1935,0.1944,0.1952,0,0,0,0,0,0.1391,0.1431,0.1448,0.1463,0.1541,0.1585,0.1596,0.164,0.1656,0.1684,0.1719,0.1713,0.1803,0.1778,0.1784,0.1824,0.1878,0.1883,0.1887,0.1932,0.1943,0.1952,0,0,0,0,0,0,0.1393,0.1442,0.1461,0.1519,0.1559,0.1597,0.1635,0.1658,0.1707,0.1725,0.1735,0.1745,0.1809,0.1811,0.1782,0.1875,0.1841,0.1847,0.1873,0.1883,0.1891,0.1896,0.1764,0,0,0,0,0,0.1404,0.1444,0.1486,0.1538,0.1558,0.1601,0.1632,0.1662,0.1702,0.1726,0.1759,0.1795,0.1827,0.1851,0.188,0.1926,0.1934,0.1959,0.1967,0.1974,0.1984,0.2027,0.204,0.1905,0.1905,0.1905,0,0,0.1422,0.1455,0.1481,0.1541,0.1576,0.1612,0.1622,0.1681,0.1717,0.1725,0.1797,0.1827,0.1847,0.1904,0.1933,0.1914,0.2018,0.198,0.1985,0.1992,0.2033,0.2046,0.2058,0.1908,0.1907,0.1907,0,0,0.1453,0.1504,0.1534,0.1568,0.1626,0.1652,0.1673,0.173,0.1764,0.1827,0.1845,0.1902,0.1952,0.1978,0.1992,0.2064,0.206,0.2078,0.2123,0.2165,0.2176,0.2186,0.2214,0.2226,0.2081,0.2081,0.2081,0,0.1472,0.1515,0.1553,0.1585,0.162,0.1669,0.1705,0.1745,0.1817,0.185,0.1861,0.1968,0.1986,0.2049,0.2078,0.2082,0.2102,0.2079,0.2175,0.2184,0.2194,0.222,0.2233,0.2084,0.2084,0.2083,0.2083,0,0.1503,0.1552,0.1577,0.1629,0.1673,0.1719,0.1769,0.1827,0.1876,0.1912,0.2004,0.2044,0.2107,0.2124,0.2123,0.2204,0.2196,0.2178,0.2144,0.221,0.2234,0.2246,0.2088,0.2087,0.2086,0.2086,0,0,0.1501,0.1579,0.1591,0.1621,0.1701,0.1737,0.1808,0.1876,0.1932,0.2008,0.2079,0.2149,0.2189,0.2209,0.2229,0.2268,0.2348,0.2259,0.2259,0.2278,0.2443,0.2315,0.2315,0.235,0.2353,0.2355,0.2434,0,0.1513,0.1569,0.1612,0.1682,0.1714,0.1785,0.1847,0.1922,0.199,0.2074,0.2132,0.2211,0.2213,0.2263,0.2305,0.2342,0.2383,0.2328,0.2385,0.2387,0.2257,0.2326,0.2362,0.2443,0.2446,0.2448,0.2449,0,0.1516,0.1556,0.1615,0.1706,0.1729,0.1787,0.1901,0.1964,0.2078,0.2136,0.2228,0.2277,0.2369,0.2354,0.2456,0.2425,0.2447,0.2463,0.2466,0.2336,0.228,0.2365,0.2471,0.2469,0.2467,0.2466,0.2465,0,0.1474,0.1559,0.1606,0.1637,0.1744,0.1801,0.1874,0.199,0.2053,0.2189,0.2256,0.2358,0.2432,0.2482,0.2532,0.2506,0.2627,0.2585,0.249,0.2481,0.2548,0.2537,0.2656,0.2656,0.2655,0.2655,0.2655,0,0.145,0.1494,0.1597,0.1624,0.17,0.1791,0.1889,0.1978,0.2107,0.2181,0.2293,0.2365,0.2472,0.2548,0.2568,0.2572,0.2661,0.2513,0.2499,0.2568,0.2559,0.2556,0.2544,0.2658,0.2657,0.2657,0.2656,0,0.139,0.1457,0.1517,0.1636,0.1681,0.1741,0.189,0.1951,0.2094,0.2199,0.2249,0.2399,0.2498,0.2583,0.267,0.2609,0.2627,0.2606,0.2693,0.2679,0.2442,0.2432,0.2494,0.249,0.2487,0.2484,0.2482,0,0.1355,0.138,0.1508,0.1548,0.1607,0.171,0.1776,0.193,0.1994,0.2195,0.2229,0.2386,0.2468,0.2494,0.2588,0.2629,0.2602,0.2585,0.2495,0.2449,0.2429,0.2424,0.2418,0.2477,0.2476,0.2475,0.2474,0,0.128,0.134,0.1386,0.1477,0.1552,0.1624,0.1735,0.177,0.1941,0.2083,0.2165,0.2229,0.2341,0.2409,0.2472,0.2488,0.2576,0.2551,0.2556,0.2471,0.2429,0.2411,0.2409,0.2463,0.2465,0.2466,0.2467,0,0.1219,0.1235,0.1312,0.1381,0.1466,0.1514,0.1588,0.167,0.1756,0.1974,0.1994,0.2166,0.231,0.2339,0.2391,0.241,0.2366,0.2273,0.2292,0.2305,0.2208,0.2126,0.2067,0,0,0,0,0,0.115,0.1163,0.1212,0.1277,0.1357,0.1419,0.1545,0.1621,0.1783,0.1793,0.1892,0.1987,0.2078,0.2167,0.2151,0.2314,0.2376,0.2284,0.2276,0.2402,0.2415,0.232,0,0,0,0,0,0,0.1103,0.1143,0.1168,0.1174,0.1204,0.1283,0.1362,0.1474,0.1494,0.1667,0.1732,0.1865,0.1987,0.2068,0.211,0.2139,0.2094,0.2396,0.2391,0.2395,0.2406,0.2417,0.2323,0,0,0,0,0]},{"header":{"parameterUnit":"m.s-1","parameterCategory":2,"la1":30.2991,"la2":30.254,"lo1":-89.0895,"lo2":-89.0444,"dy":0.0017,"dx":0.0017,"nx":28,"ny":28,"refTime":"2025-04-26T21:00:00:Z","depth":"4","parameterNumber":3,"parameterNumberName":"V-component_of_CURRENTS"},"data":[0,0,0,0,0,0,0,0,0,0,0,0,0,0,0,0,0,0,0,0,0,0,0,0,0,0,0,0,0,0,0,0,0,0,0,0,0,0,0,0,0,0,0,0,0,0,0,0,0,0,0,0,0,0,0,0,0,0,0.0006,0.0006,0,-0.0051,-0.0052,-0.0053,-0.0085,-0.0085,-0.0085,-0.0086,-0.0157,-0.0159,-0.0161,0,0,0,0,0,0,0,0,0,0,0,0,0,0.0055,0.0054,0.0006,0.0006,0.0005,-0.0051,-0.0052,-0.0053,-0.0085,-0.0085,-0.0085,-0.0086,-0.0156,-0.0158,-0.0161,0,0,0,0,0,0,0,0,0,0,0,0,0,0.0019,0.0054,0.0006,-0.0018,-0.002,-0.0051,-0.0052,-0.0053,-0.0085,-0.0085,-0.0085,-0.0086,-0.0156,-0.0158,-0.0161,-0.0176,0,0,-0.0169,-0.0171,0,0,0,0,0,0,0,0,0.0021,0.0017,-0.0013,-0.0016,-0.0019,-0.0061,-0.0061,-0.0095,-0.0085,-0.0061,-0.0086,-0.0086,-0.0126,-0.0131,-0.0142,-0.018,-0.0183,-0.017,-0.0171,-0.0173,-0.0173,0,0,0,0,0,0,0,0.0023,0.0019,-0.0017,-0.0014,-0.0018,-0.0037,-0.0042,-0.0068,-0.0093,-0.0063,-0.0066,-0.0071,-0.0127,-0.0139,-0.0144,-0.0184,-0.017,-0.0172,-0.0174,-0.0175,-0.0248,-0.0248,0,0,0,0,0,0,0.0033,0.0022,-0.0015,-0.0019,0.0002,-0.0037,-0.0043,-0.0048,-0.0092,-0.0099,-0.0071,-0.0072,-0.0135,-0.0141,-0.0147,-0.0168,-0.0173,-0.0175,-0.0177,-0.0248,-0.0248,-0.0248,0,0,0,0,0,0,0.0035,0.0031,-0.0013,0.0,-0.0006,-0.0038,-0.0043,-0.0049,-0.0061,-0.0098,-0.0105,-0.0077,-0.0135,-0.0143,-0.017,-0.0171,-0.0176,-0.0179,-0.0247,-0.0248,-0.0248,-0.021,0,0,0,0,0,0,0.0036,0.0032,0.0033,0.0001,-0.0007,-0.0027,-0.0043,-0.005,-0.0064,-0.0066,-0.0105,-0.0112,-0.0136,-0.0166,-0.0173,-0.0175,-0.0181,-0.0247,-0.0247,-0.0248,-0.021,-0.0209,-0.0207,0,0,0,0,0,0.0038,0.004,0.0033,0.0029,-0.0004,-0.0027,-0.0033,-0.0056,-0.0064,-0.0067,-0.0096,-0.0111,-0.0174,-0.0169,-0.0177,-0.0179,-0.0247,-0.0247,-0.0248,-0.0211,-0.0209,-0.0207,0,0,0,0,0,0,0.0062,0.0036,0.0028,0.0022,0.0002,-0.0032,-0.0037,-0.0053,-0.0078,-0.0081,-0.0115,-0.0124,-0.0149,-0.017,-0.0163,-0.0202,-0.0213,-0.0215,-0.0182,-0.018,-0.0179,-0.016,-0.0183,0,0,0,0,0,0.0069,0.0063,0.0036,0.0032,0.0024,-0.0006,-0.0017,-0.0033,-0.006,-0.0071,-0.0099,-0.013,-0.0158,-0.0173,-0.0202,-0.0222,-0.0243,-0.023,-0.0228,-0.0226,-0.0217,-0.0254,-0.0254,-0.025,-0.025,-0.025,0,0,0.0078,0.0063,0.006,0.0037,0.0019,0.0011,-0.0013,-0.0028,-0.0038,-0.0075,-0.0095,-0.0125,-0.0163,-0.0187,-0.02,-0.0204,-0.0239,-0.0227,-0.0225,-0.0217,-0.0255,-0.0255,-0.0255,-0.0251,-0.0251,-0.025,0,0,0.0092,0.008,0.0079,0.0065,0.0042,0.0024,0.0022,-0.001,-0.0026,-0.005,-0.008,-0.0107,-0.0149,-0.0176,-0.0195,-0.0201,-0.0229,-0.0212,-0.0188,-0.0223,-0.0224,-0.0224,-0.0251,-0.0255,-0.0211,-0.0211,-0.0211,0,0.0103,0.0099,0.0076,0.0071,0.0067,0.0033,0.0034,0.001,-0.0027,-0.0034,-0.005,-0.0109,-0.0143,-0.0171,-0.0175,-0.0196,-0.0218,-0.0191,-0.022,-0.0221,-0.0222,-0.025,-0.0254,-0.0209,-0.0209,-0.0209,-0.0209,0,0.0113,0.0112,0.0111,0.0097,0.0089,0.0084,0.0055,0.004,0.0019,-0.0001,-0.0031,-0.008,-0.0109,-0.0131,-0.0156,-0.0181,-0.0195,-0.0213,-0.0221,-0.022,-0.025,-0.0254,-0.0206,-0.0207,-0.0207,-0.0208,0,0,0.0133,0.0121,0.0122,0.013,0.0105,0.0104,0.0088,0.0071,0.0072,0.0027,0.0024,-0.0037,-0.0056,-0.0079,-0.0118,-0.0154,-0.0187,-0.0183,-0.0186,-0.0201,-0.0261,-0.025,-0.0255,-0.0212,-0.0212,-0.0213,-0.0277,0,0.0149,0.0156,0.0144,0.016,0.0164,0.0141,0.0137,0.0119,0.0095,0.0082,0.0027,0.0009,-0.0039,-0.0049,-0.0094,-0.0162,-0.0199,-0.0168,-0.0266,-0.0269,-0.0253,-0.026,-0.0215,-0.0281,-0.0282,-0.0283,-0.0284,0,0.0163,0.0169,0.0186,0.0203,0.0205,0.0211,0.0214,0.0205,0.0174,0.0156,0.0122,0.0085,0.0029,-0.0011,-0.0126,-0.0104,-0.0175,-0.0233,-0.0237,-0.0241,-0.0267,-0.0285,-0.0293,-0.0292,-0.0292,-0.0291,-0.0291,0,0.0193,0.0203,0.0224,0.0227,0.0233,0.0244,0.0249,0.0231,0.0241,0.0207,0.0214,0.0136,0.011,0.0005,-0.0113,-0.012,-0.0238,-0.0265,-0.0323,-0.0323,-0.0329,-0.0328,-0.0343,-0.0343,-0.0342,-0.0342,-0.0342,0,0.0213,0.0233,0.0244,0.0258,0.03,0.0288,0.0326,0.0314,0.0312,0.0337,0.0263,0.0261,0.0112,0.003,-0.0091,-0.0215,-0.0223,-0.0314,-0.0338,-0.0312,-0.0308,-0.0333,-0.0331,-0.0345,-0.0344,-0.0344,-0.0343,0,0.0236,0.024,0.0273,0.0297,0.0314,0.0343,0.0389,0.0415,0.0403,0.0429,0.0427,0.0355,0.0247,0.0098,-0.0071,-0.0171,-0.0302,-0.0345,-0.0294,-0.0315,-0.0369,-0.0365,-0.0415,-0.0416,-0.0416,-0.0416,-0.0416,0,0.0243,0.026,0.0311,0.0345,0.0359,0.0406,0.0445,0.0457,0.0489,0.049,0.051,0.0427,0.0358,0.0144,-0.0034,-0.0258,-0.0294,-0.0366,-0.0381,-0.0358,-0.0377,-0.0372,-0.0367,-0.0416,-0.0416,-0.0416,-0.0416,0,0.026,0.0279,0.0309,0.0384,0.0437,0.0499,0.0554,0.0592,0.0608,0.0601,0.0594,0.0481,0.0361,0.0171,-0.0001,-0.0168,-0.0324,-0.0368,-0.0369,-0.0385,-0.036,-0.0377,-0.0372,-0.0417,-0.0417,-0.0417,-0.0417,0,0.0274,0.0302,0.0351,0.042,0.0494,0.0574,0.06,0.0645,0.0679,0.0678,0.0674,0.0537,0.0451,0.0218,0.0057,-0.0103,-0.0153,-0.0217,-0.0227,-0.0229,-0.0163,-0.0104,-0.0097,0,0,0,0,0,0.0287,0.0327,0.0388,0.0469,0.0545,0.0595,0.0669,0.0687,0.0711,0.0723,0.0703,0.0593,0.0366,0.0267,0.0112,0.0031,-0.0198,-0.016,-0.028,-0.0419,-0.0419,-0.0374,0,0,0,0,0,0,0.0295,0.0351,0.0388,0.0499,0.0566,0.0657,0.071,0.0725,0.0733,0.0729,0.062,0.055,0.0334,0.0463,0.0111,0.0059,-0.0041,-0.027,-0.0274,-0.0419,-0.0419,-0.0419,-0.0372,0,0,0,0,0]}]]